Weather History for Lawrence, KS

Change the Weather History Date:

Sunday, November 4, 2012

  Actual Average Record
Temperature  
Mean Temperature 45 °F 49 °F  
Max Temperature 64 °F 61 °F 73 °F (2001)
Min Temperature 26 °F 37 °F 24 °F (2002)
Degree Days  
Heating Degree Days 20 16  
Month to date heating degree days 60 62  
Since 1 July heating degree days 516 426  
Cooling Degree Days 0 0  
Month to date cooling degree days 0 0  
Year to date cooling degree days 1774 1370  
Moisture  
Dew Point 33 °F    
Average Humidity 68    
Maximum Humidity 100    
Minimum Humidity 36    
Precipitation  
Precipitation T in 0.09 in 0.05 in (2004)
Month to date precipitation T 0.37  
Year to date precipitation 19.04 35.27  
Sea Level Pressure  
Sea Level Pressure 30.15 in    
Wind  
Wind Speed 5 mph (SSE)    
Max Wind Speed 15 mph    
Max Gust Speed 18 mph    
Visibility 8 miles    
Events      
T = Trace of Precipitation, MM = Missing Value Source: NWS Daily Summary

Daily Weather History Graph

Daily Weather History Graph

Search for Another Location

Airport:

Trip Planner

Search our weather history database for the weather conditions in past years. The results will help you decide how hot, cold, wet, or windy it might be!

Date:

Astronomy

Nov. 04, 2012 Rise Set
Actual Time 6:52 AM CST 5:16 PM CST
Civil Twilight 6:24 AM CST 5:44 PM CST
Nautical Twilight 5:52 AM CST 6:15 PM CST
Astronomical Twilight 5:21 AM CST 6:47 PM CST
Moon 9:55 PM CST (11/4) 11:35 AM CST (11/4)
Length of Visible Light 11h 19m
Length of Day
10h 24m
Waning Gibbous, 72% of the Moon is Illuminated
Nov 4
Waning Gibbous
Nov 6
Last Quarter
Nov 13
New
Nov 20
First Quarter
Nov 28
Full

Hourly Weather History & Observations

Time (CST) Temp. Windchill Dew Point Humidity Pressure Visibility Wind Dir Wind Speed Gust Speed Precip Events Conditions
12:52 AM 30.0 °F 25.2 °F 26.1 °F 85% 30.23 in 6.0 mi NNW 4.6 mph - N/A   Clear
1:52 AM 30.0 °F - 27.0 °F 88% 30.23 in 7.0 mi Calm Calm - N/A   Clear
1:52 AM 27.0 °F - 26.1 °F 96% 30.22 in 7.0 mi Calm Calm - N/A   Clear
2:52 AM 28.0 °F - 24.1 °F 85% 30.21 in 6.0 mi Calm Calm - N/A   Clear
3:52 AM 27.0 °F 21.6 °F 24.1 °F 89% 30.21 in 8.0 mi NNW 4.6 mph - N/A   Mostly Cloudy
4:52 AM 28.9 °F - 26.1 °F 89% 30.22 in 7.0 mi Calm Calm - N/A   Partly Cloudy
5:52 AM 33.1 °F - 30.0 °F 89% 30.23 in 7.0 mi Calm Calm - N/A   Partly Cloudy
6:52 AM 34.0 °F - 30.0 °F 85% 30.24 in 7.0 mi Calm Calm - N/A   Clear
7:52 AM 36.0 °F - 33.1 °F 89% 30.25 in 5.0 mi Calm Calm - N/A   Partly Cloudy
8:52 AM 41.0 °F 39.0 °F 35.1 °F 79% 30.25 in 6.0 mi SE 3.5 mph - N/A   Haze
9:52 AM 48.9 °F - 36.0 °F 61% 30.22 in 7.0 mi South 5.8 mph - N/A   Clear
10:52 AM 57.0 °F - 36.0 °F 45% 30.20 in 9.0 mi South 8.1 mph - N/A   Clear
11:52 AM 60.1 °F - 35.1 °F 39% 30.17 in 10.0 mi South 8.1 mph - N/A   Clear
12:52 PM 62.1 °F - 36.0 °F 38% 30.13 in 10.0 mi SSE 8.1 mph - N/A   Clear
1:52 PM 63.0 °F - 36.0 °F 37% 30.10 in 10.0 mi South 11.5 mph 17.3 mph N/A   Clear
2:52 PM 62.1 °F - 36.0 °F 38% 30.07 in 10.0 mi SSE 15.0 mph - N/A   Clear
3:52 PM 63.0 °F - 36.0 °F 37% 30.06 in 10.0 mi South 12.7 mph - N/A   Clear
4:52 PM 61.0 °F - 37.0 °F 41% 30.05 in 10.0 mi South 9.2 mph - N/A   Clear
5:52 PM 55.0 °F - 37.0 °F 51% 30.06 in 10.0 mi SSE 8.1 mph - N/A   Clear
6:52 PM 55.0 °F - 39.0 °F 55% 30.06 in 10.0 mi SE 9.2 mph - N/A   Clear
7:52 PM 52.0 °F - 39.0 °F 61% 30.04 in 10.0 mi SE 6.9 mph - N/A   Mostly Cloudy
8:52 PM 55.0 °F - 39.0 °F 55% 30.05 in 10.0 mi East 4.6 mph - N/A   Overcast
9:52 PM 53.1 °F - 39.9 °F 61% 30.06 in 10.0 mi Calm Calm - N/A   Overcast
10:52 PM 51.1 °F - 39.9 °F 66% 30.04 in 10.0 mi SE 4.6 mph - N/A   Overcast